User: anonymous   Login
Location: Unspecified
(0.0000°N, 0.0000°E)
Time: 17:15:23
(UTC+01:00)
Language:

BREEZE-M DEB (TANK) - Orbit

View from above orbital plane
View from above orbital plane
View from above satellite
View from above satellite

Ground track
Ground track

The orbit data is extracted from the following two-line orbital elements,

1 33374U 08044B   18054.43795248 +.00000310 +00000-0 +15498-3 0  9990
2 33374 049.4769 107.2848 5426312 235.5637 060.9005 04.87278964166272
Epoch (UTC): 23 February 2018 10:30:39
Eccentricity: 0.5426312
inclination: 49.4769°
perigee height: 343 km
apogee height: 16293 km
right ascension of ascending node: 107.2848°
argument of perigee: 235.5637°
revolutions per day: 4.87278964
mean anomaly at epoch: 60.9005°
orbit number at epoch: 16627

The dashed part of the orbit path shows where the satellite is in the earth's shadow,  

DLR